Voltar ao catálogo

NUSAT-40

C SHOEMAKER

AtivoCiênciaPO
NORAD 56943·PAYLOAD·🇦🇷 Argentina

Lançado Jun 12, 2023 de Vandenberg Space Force Base

Loading…

Próximas Passagens (próximas 24 horas)

TLE

AtualizadoSource: Space-Track

Época: Sep 14, 2026, 05:42 UTC

1 56943U 23084M   26257.23770882  .04924417  25723-5  61601-3 0  9995
2 56943  97.4777  52.8898 0011724 268.7756  91.2198 16.35922825182965

Acompanhe NUSAT-40 em tempo real com AllMySat

Download on the App Store